Location: Beekmeers
(50.8953°N, 3.6968°E)
Time: 05:44:36
(UTC+00:00)

Cosmos 1408 - Pass Details

Date: 23 May 2024
Orbit: 362 x 376 km, 82.6° (Epoch: 19 June)

Event Time Altitude Azimuth Distance (km) Brightness Sun altitude
Exits shadow 01:28:13 13° 140° (SE) 1,197 4.3 -14.7°
Maximum altitude 01:30:08 23° 91° (E) 839 4.0 -14.6°
Drops below altitude 10° 01:32:32 10° 37° (NE) 1,363 6.2 -14.4°
Enters shadow 02:25:03 -73° 191° (SSW) 12,583 9.6 -10.0°
